Regional Weather Roundup
Issued by NWS

Home | Current Version | Previous Version | Text Only | Print | Product List | Glossary On
Versions: 1 2 3 4 5 6 7 8 9 10 11 12 13 14 15 16 17 18 19 20 21 22 23 24 25 26 27 28 29 30 31 32 33 34 35 36 37 38 39 40 41 42 43 44 45 46 47 48 49
000
ASUS46 KSEW 281610
RWRWA

WASHINGTON REGIONAL WEATHER ROUNDUP
NATIONAL WEATHER SERVICE SEATTLE WA
800 AM PST SAT FEB 28 2015

NOTE:"FAIR" INDICATES FEW OR NO CLOUDS BELOW 12,000 FEET WITH NO
SIGNIFICANT WEATHER AND/OR OBSTRUCTIONS TO VISIBILITY.

WAZ505-507>509-281700-
SEATTLE, TACOMA, EVERETT, AND VICINITY

CITY           SKY/WX    TMP DP  RH WIND       PRES   REMARKS
EVERETT        SUNNY     41  29  62 N8        30.14R
BOEING FIELD   SUNNY     42  33  70 CALM      30.15R
RENTON         SUNNY     42  32  67 N5        30.15R
SEATAC AIRPORT SUNNY     42  31  64 N13       30.14R
JBLM-MCCHORD   SUNNY     44  34  67 NE13G24   30.12R
PUYALLUP       FAIR      41  34  75 VRB5      30.12R
BREMERTON      CLEAR     45  25  45 N14G20    30.14R
JBLM-FT LEWIS  SUNNY     44  31  61 N14       30.11R
TACOMA NARROWS SUNNY     44  28  53 N12       30.13R
$$

WAZ001-503-506-510-514-515-281700-
NORTH INTERIOR

CITY           SKY/WX    TMP DP  RH WIND       PRES   REMARKS
BELLINGHAM     CLEAR     43  16  33 NE10      30.19R
FRIDAY HARBOR  CLEAR     44  23  43 VRB3      30.19R
EASTSOUND      CLEAR     46  19  34 NE5       30.17R
PORT ANGELES   CLEAR     36  30  79 CALM      30.19S
NAS WHIDBEY    CLEAR     43  23  45 N9        30.17R
ARLINGTON      CLEAR     36  25  64 CALM      30.17R
BURLINGTON     CLEAR     36  28  75 NW3       30.17R
$$

WAZ020-022-039-040-504-511-512-281700-
SOUTHWEST INTERIOR

CITY           SKY/WX    TMP DP  RH WIND       PRES   REMARKS
SHELTON        CLEAR     39  29  67 VRB3      30.11R
OLYMPIA        SUNNY     43  27  53 N6        30.12R
CHEHALIS       FAIR      39  36  87 N9        30.11R
KELSO          SUNNY     39  36  87 CALM      30.12R
VANCOUVER      SUNNY     43  38  82 NW3       30.07R
SCAPPOOSE, OR  SUNNY     44  37  76 NW6       30.07R
PORTLAND, OR   MOSUNNY   43  39  86 N7        30.07R
$$

WAZ021-516-517-281700-
WASHINGTON COAST

CITY           SKY/WX    TMP DP  RH WIND       PRES   REMARKS
FORKS          CLEAR     44  24  45 NE10      30.13R
HOQUIAM        CLEAR     39  33  79 E5        30.11R
ASTORIA, OR    CLEAR     44  34  67 E6        30.08R
$$

WAZ019-023-024-040-518-519-281700-
CASCADE MOUNTAINS AND COLUMBIA GORGE

CITY           SKY/WX    TMP DP  RH WIND       PRES   REMARKS
TROUTDALE, OR  SUNNY     49  23  36 E17G25    30.05R
THE DALLES, OR SUNNY     38  36  92 SW3       30.12R
$$

WAZ026-027-041>044-520-521-281700-
EAST SLOPES

CITY           SKY/WX    TMP DP  RH WIND       PRES   REMARKS
OMAK           SUNNY     36  16  44 NW8       30.19R
WENATCHEE      SUNNY     40  19  43 NW7       30.15R
ELLENSBURG     SUNNY     43  16  33 N6        30.09R
YAKIMA         SUNNY     45  17  32 N18       30.12R
$$

WAZ028-034-035-281700-
COLUMBIA BASIN

CITY           SKY/WX    TMP DP  RH WIND       PRES   REMARKS
EPHRATA        SUNNY     38  19  46 N21       30.11R
MOSES LAKE     SUNNY     35  24  64 N8        30.13R
PASCO          SUNNY     38  15  39 N13G23    30.11R
HERMISTON, OR  SUNNY     38  14  37 N12       30.09R
$$

WAZ036>038-281700-
NORTHEAST WASHINGTON

CITY           SKY/WX    TMP DP  RH WIND       PRES   REMARKS
SPOKANE GEIGER SUNNY     30   7  37 NE13      30.07R WCI  20
SPOKANE FELTS  SUNNY     33   7  33 NE10G17   30.11R WCI  25
FAIRCHILD AFB  SUNNY     30   6  36 NE20      30.06R WCI  17
COEURDALENE,ID SUNNY     28   9  43 N21       30.10R WCI  15
DEER PARK      SUNNY     31   7  36 NE9       30.12R
$$

WAZ029>033-281700-
SOUTHEAST WASHINGTON

CITY           SKY/WX    TMP DP  RH WIND       PRES   REMARKS
PULLMAN        SUNNY     32  14  47 NE12      29.99R WCI  23
LEWISTON, ID   SUNNY     35  23  61 CALM      30.01R
WALLA WALLA    MOSUNNY   36  22  56 NE9       30.01R
PENDLETON, OR  MOSUNNY   33  19  56 W6        30.02R
$$



USA.gov is the U.S. government's official web portal to all federal, state and local government web resources and services.